Overview Statistics Trail Chart Weather Telemetry Raw packets
 

This is the latest recevied weather packets stored in our database for station/object M0JUI-1. If no packets are shown the sender has not sent any weather packets the latest 10 day(s).

<< 83 84 85 86 87 88 89 >>
Time Temp. Humidity Pressure Rain* Wind** Luminosity Snow
1788029685 15° C 24% 1002.3 hPa 0 mm - 3 W/m² -
1788029385 15° C 24% 1002.3 hPa 0 mm - 4 W/m² -
1788029084 15° C 24% 1002.2 hPa 0 mm - 3 W/m² -
1788028784 15° C 24% 1002.3 hPa 0 mm - 3 W/m² -
1788028484 15° C 24% 1002.4 hPa 0 mm - 3 W/m² -
1788028184 15° C 24% 1002.1 hPa 0 mm - 5 W/m² -
1788027884 15° C 23% 1002.3 hPa 0 mm - 6 W/m² -
1788027584 15° C 23% 1002 hPa 0 mm - 6 W/m² -
1788027284 15° C 23% 1002 hPa 0 mm - 8 W/m² -
1788026984 15° C 23% 1002 hPa 0 mm - 9 W/m² -
1788026696 15° C 23% 1002 hPa 0 mm - 9 W/m² -
1788026384 15° C 23% 1002 hPa 0 mm - 7 W/m² -
1788026084 15.56° C 23% 1001.9 hPa 0 mm - 9 W/m² -
1788025785 15.56° C 23% 1002 hPa 0 mm - 10 W/m² -
1788025484 15.56° C 23% 1001.9 hPa 0 mm - 16 W/m² -
1788025184 15° C 23% 1002 hPa 0 mm - 26 W/m² -
1788024884 15.56° C 23% 1001.8 hPa 0 mm - 26 W/m² -
1788024584 15° C 22% 1001.7 hPa 0 mm - 32 W/m² -
1788024285 15° C 22% 1001.8 hPa 0 mm - 39 W/m² -
1788023984 15° C 22% 1001.8 hPa 0 mm - 38 W/m² -
1788023685 15° C 22% 1001.7 hPa 0 mm - 35 W/m² -
1788023384 15° C 22% 1001.6 hPa 0 mm - 32 W/m² -
1788023084 15° C 22% 1001.7 hPa 0 mm - 32 W/m² -
1788022784 15° C 22% 1001.7 hPa 0.25 mm - 31 W/m² -
1788022484 15° C 22% 1001.8 hPa 0.25 mm - 30 W/m² -

* Rain latest hour (hover to see other rain measurements)
** Current wind speed in m/s (hover to see current wind gust speed)